User: anonymous   Login
Location: Unspecified
(0.0000°N, 0.0000°E)
Time: 17:17:27
(UTC+00:00)
Language:

GALILEO 7 (263) - Orbit

View from above orbital plane
View from above orbital plane
View from above satellite
View from above satellite

Ground track
Ground track

The orbit data is extracted from the following two-line orbital elements,

1 40544U 15017A   21024.46242889 -.00000048  00000-0  00000-0 0  9996
2 40544  56.5554  35.3211 0005506 264.1001  95.8822  1.70475036 35627
Epoch (UTC): 24 January 2021 11:05:53
Eccentricity: 0.0005506
inclination: 56.5554°
perigee height: 23205 km
apogee height: 23238 km
right ascension of ascending node: 35.3211°
argument of perigee: 264.1001°
revolutions per day: 1.70475036
mean anomaly at epoch: 95.8822°
orbit number at epoch: 3562

The dashed part of the orbit path shows where the satellite is in the earth's shadow,  

DLR